Вернуться в каталог

BREEZE-M R/B

АктивенHEO
NORAD 39023·ROCKET BODY·🇷🇺 Russia

Запущен Dec 8, 2012 с Baikonur Cosmodrome

Loading…

Ближайшие Пролёты (ближайшие 24 часа)

TLE

СвежийSource: Space-Track

Эпоха: Sep 14, 2026, 12:35 UTC

1 39023U 12070B   26257.52453213 -.00000085  00000-0  00000+0 0  9997
2 39023  26.1828  22.4225 6350066 221.4569  67.2451  2.09995297104932

Отслеживайте BREEZE-M R/B в реальном времени с AllMySat

Download on the App Store